C/2014 G1 ( PanSTARRS )

Japanese version
Home page
Updated on June 11, 2016

---------------------------------------------------------------------

* Profile

Discovery Date April 5, 2014
Magnitude 20.5 mag
Discoverer Pan-STARRS 1 telescope (Haleakala)

* Pictures

* Orbital Elements

Epoch 2013 Nov. 4.0 TT = JDT 2456600.5
T 2013 Nov. 6.81413 TT                                  MPC
q   5.4686491            (2000.0)            P               Q
z  +0.0009672      Peri.   77.06013     -0.14741004     -0.98467176
 +/-0.0000396      Node   337.91961     -0.97609201     +0.12960462
e   0.9947107      Incl.  165.64004     -0.15973313     +0.11672260
From 70 observations 2014 Mar. 30-June 29, mean residual 0".5.

* Magnitudes Graph

        m1 = 8.5 + 5 log d + 10.0 log r

---------------------------------------------------------------------

The orbital elements are published on M.P.E.C. 2014-S34.
The magnitudes graphs are made with Comet for Windows.

---------------------------------------------------------------------

Copyright(C) Seiichi Yoshida (comet@aerith.net). All rights reserved.